Weather in Vtoryye Terbuny

Russia / Lipetsk Oblast     52°06′54″N   38°28′58″E
temp.,
°C
wind,
m/s
gust,
m/s
humid.,
%
clouds,
%
prec.,
mm/h
press.,
hPa
HPBL,
m
14 june, mon
mon1400:00+16sse228936 0.3 101012
03:00+15sse229110 0.3 101119
06:00+17sse228857 0.0 101281
09:00+21ese22755 0.0 1013445
12:00+24ese22615 1.3 10141161
15:00+25e225874 1.3 10141468
18:00+23e227485 1.1 1014205
21:00+19ne2283100 1.8 101418
15 june, tue
tue1500:00+17ene2287100 0.0 101414
03:00+17nne2290100 0.0 101416
06:00+18ne2492100 0.0 1014110
09:00+21ne3482100 0.0 1013428
12:00+24ene347049 0.2 10121050
15:00+25ne3366100 1.1 10111204
18:00+23nne2379100 1.4 1010276
21:00+19ne1183100 2.0 101011
16 june, wed
wed1600:00+18nw118599 0.0 101011
03:00+17wnw229077 0.3 101015
06:00+18wnw2495100 2.2 1010119
09:00+21nw338392 2.2 1011367
12:00+24nnw346883 0.4 10111089
15:00+25nnw34678 0.8 10121249
18:00+21n4686100 4.9 1013145
21:00+19nne399417 5.1 1015273
17 june, thu
thu1700:00+17nne410950 0.0 1016230
03:00+15ne411960 0.0 1018266
06:00+15ne511910 0.0 1020367
09:00+18ne69715 0.0 1021625
12:00+21ne68614 0.0 10221177
15:00+22ne67610 0.0 10221395
18:00+20nne610730 0.0 1023627
21:00+15ne49840 0.0 1025173
18 june, fri
fri1800:00+14ne36830 0.0 102588
03:00+13ne378427 0.0 1026114
06:00+14ene36861 0.0 1027159
09:00+19ene35725 0.0 1028528
12:00+22ene456113 0.0 10281477
15:00+23ene45570 0.0 10271632
18:00+22ene35680 0.0 1027502
21:00+17ese337721 0.0 102826